Hourly Data Report for July 13, 2011

HALIFAX STANFIELD INT'L A
NOVA SCOTIA

44°52'48.060" N
63°30'00.050" W
145.40 m
8202250
71395
YHZ

Download Data

Hourly Data (July 2011)
Hourly Data Report for July 13, 2011
TIME
LST
Temp Definition
°C
Dew Point Definition
°C
Rel Hum Definition
%
Precip. Amount Definition
mm

Wind Dir Definition
10's deg

Wind Spd Definition
km/h
Visibility Definition
km
Stn Press Definition
kPa
Hmdx Definition


Wind Chill Definition


Weather Definition


00:00 16.4 15.7 96   22 9 0.4 98.39     Fog
01:00 16.7 16.0 96   26 9 0.6 98.37     Fog
02:00 16.8 16.1 96   19 19 0.6 98.27     Fog
03:00 17.0 16.4 96   21 20 1.2 98.19     Fog
04:00 17.4 16.7 96   31 9 2.0 98.29     Fog
05:00 17.5 16.8 96   31 17 1.6 98.31     Fog
06:00 17.7 17.0 96   31 19 1.6 98.35     Fog
07:00 18.0 16.6 92   33 19 6.4 98.41     Fog
08:00 18.8 16.6 87   35 13 24.1 98.46     Mostly Cloudy
09:00 20.4 17.3 82   33 13 24.1 98.51 26   Mostly Cloudy
10:00 21.9 17.5 76   33 19 24.1 98.53 28   Mostly Cloudy
11:00 22.2 16.6 71   33 13 24.1 98.60 27   Mostly Cloudy
12:00 23.0 16.8 68   34 19 24.1 98.62 28   Mostly Cloudy
13:00 23.3 17.2 69   33 20 24.1 98.65 29   Mostly Cloudy
14:00 23.6 16.4 64   34 19 24.1 98.70 28   Mostly Cloudy
15:00 22.6 16.7 69   35 30 24.1 98.75 28   Mostly Cloudy
16:00 20.5 15.5 73   36 26 24.1 98.84 25   Mostly Cloudy
17:00 17.8 14.3 80   1 30 24.1 98.93     Cloudy
18:00 18.0 13.6 75   2 15 24.1 99.01     Mostly Cloudy
19:00 16.1 11.6 75   1 24 24.1 99.10     Mostly Cloudy
20:00 14.8 10.9 77   2 17 24.1 99.16     Mainly Clear
21:00 13.4 10.3 81   36 17 24.1 99.24     Mainly Clear
22:00 12.5 10.3 86   1 9 24.1 99.27     Mainly Clear
23:00 12.0 10.3 89   1 13 24.1 99.28     Mainly Clear

Notes on Data Quality.

Legend

  • E = Estimated
  • M = Missing
  • NA = Not Available*
  • [empty] = Indicates an unobserved value
Date modified: